{"data":{"norad_id":63940,"epoch":"2026-09-20T02:34:28.354368Z","epoch_age_seconds":180994,"freshness":"STALE","line1":"1 63940U 25098Q   26263.10727262  .00014393  00000+0  50402-3 0  9995","line2":"2 63940  69.9992 141.8939 0003267 264.0172  96.0631 15.29588566 75735","mean_motion":15.29588566,"eccentricity":0.0003267,"inclination_deg":69.9992,"raan_deg":141.8939,"arg_perigee_deg":264.0172,"mean_anomaly_deg":96.0631,"bstar":0.00050402,"rev_number":7573,"period_min":94.142963147647,"perigee_km":474.80172249561,"apogee_km":479.28089600287,"semimajor_km":6855.1783092492,"source":"CELESTRAK","updated_at":"2026-09-21T09:00:35.151763Z"}}